Lid_Strength_Index
3 4 3 4 4 4 4 4 4 3 3 3 3 2 2 2 3 5 7 5 3 2 2 5 7 7 6 8 8 8 10 12 12 11 10 9 10 7 6 7 6 5 6 5 3
4 4 4 4 4 4 4 4 4 3 3 3 3 3 3 3 5 7 6 3 2 2 5 7 8 8 8 8 8 9 10 11 10 9 10 9 8 7 7 6 6 6 5 4 3
4 4 4 4 4 4 3 4 4 4 3 3 3 3 3 3 7 8 4 3 3 4 5 7 7 8 9 8 9 10 10 10 10 9 8 8 8 7 7 7 6 7 6 4 3
3 4 4 4 4 4 3 4 4 4 3 4 3 3 2 5 10 7 4 4 4 5 7 8 8 9 10 11 10 11 10 9 9 9 9 9 7 7 7 6 5 6 6 4 4
3 3 4 4 5 4 3 4 4 4 3 4 3 3 4 8 8 6 4 4 5 6 8 8 9 9 11 10 10 10 10 8 8 8 8 8 8 7 7 6 5 6 5 4 4
3 3 4 4 5 5 4 4 4 4 4 3 3 3 6 10 7 6 6 5 6 7 8 8 9 8 10 11 10 9 9 9 8 8 8 9 8 8 6 6 6 7 6 5 5
3 3 3 4 5 5 5 4 4 4 4 3 4 5 8 9 6 6 5 6 6 6 8 7 7 8 9 11 8 8 10 9 9 8 8 8 9 9 6 6 7 7 7 6 5
2 3 3 3 5 5 5 5 5 4 4 4 4 7 9 7 6 7 6 6 5 6 6 6 6 8 9 9 9 10 9 11 10 9 8 9 10 8 6 7 7 8 7 7 6
3 3 3 4 4 5 5 5 5 5 4 4 7 8 10 7 8 7 6 7 6 6 7 7 7 9 9 10 11 10 11 12 11 9 9 9 10 8 7 7 8 8 8 7 7
2 3 3 3 4 5 5 5 5 6 7 8 9 10 10 10 8 8 6 6 7 8 8 9 9 10 10 10 13 11 12 13 12 10 10 10 10 8 7 7 7 8 8 8 8
1 2 3 3 4 5 5 8 10 11 10 10 11 11 11 9 8 8 7 7 7 8 11 11 11 12 12 11 13 11 11 11 12 10 11 10 10 9 7 7 7 8 8 8 8
1 1 2 3 4 5 6 11 11 10 12 11 10 11 10 9 11 9 7 9 9 11 11 13 13 13 12 12 12 12 12 12 12 11 12 12 12 9 9 8 7 7 9 9 9
1 1 1 3 4 6 9 10 8 9 12 12 11 11 11 9 11 10 9 9 11 12 12 13 13 13 13 13 13 12 12 13 13 12 10 11 11 11 9 8 7 7 8 9 9
0 1 1 2 6 7 9 8 8 8 12 13 14 12 11 10 12 10 9 10 11 12 12 13 12 13 13 13 12 13 12 12 13 13 13 12 14 11 10 10 8 8 9 10 9
0 1 1 3 6 9 10 8 7 7 19 11 14 11 11 12 12 12 10 10 12 13 13 14 14 14 14 14 12 12 11 11 12 12 13 13 14 10 11 11 10 9 10 10 10
0 1 2 7 8 8 8 7 6 14 20 16 14 14 14 13 13 12 11 10 10 13 12 13 12 13 13 13 12 10 11 12 12 13 16 13 14 12 12 11 10 9 9 10 10
0 1 3 5 8 7 7 8 16 18 14 16 16 14 14 15 14 12 13 14 14 16 15 14 14 14 13 14 12 11 12 14 16 17 17 15 15 12 11 10 9 10 10 9 9
-0 1 2 3 7 7 8 14 20 15 15 15 15 14 16 15 14 14 14 15 12 13 15 16 18 15 13 13 14 12 12 14 19 16 15 16 16 12 10 9 8 9 9 9 10
-0 2 4 6 6 7 12 17 15 14 12 15 15 16 16 16 15 15 14 14 13 13 14 15 17 15 14 13 12 13 15 13 15 18 16 13 13 11 11 11 9 8 9 10 10
2 4 6 6 5 8 13 14 15 12 11 13 15 15 17 17 16 16 15 13 14 12 13 14 18 16 15 13 13 13 12 15 14 18 18 15 15 12 13 12 10 9 9 9 9
4 7 7 5 6 12 15 14 14 12 11 13 13 15 15 17 15 16 15 13 12 13 13 13 14 18 16 16 15 15 15 14 14 15 16 17 13 10 10 10 10 9 8 8 9
5 12 7 5 13 13 14 13 12 13 12 12 11 12 15 15 16 16 15 14 12 13 15 13 15 18 17 15 14 14 13 13 14 16 16 16 14 11 11 9 9 9 8 7 8
9 12 8 7 13 13 14 14 13 14 14 14 14 13 14 15 16 15 14 15 13 14 14 14 15 19 18 17 16 17 14 13 13 14 17 15 13 12 12 11 10 9 8 8 8
11 14 13 11 11 11 13 14 15 13 13 13 13 13 15 17 17 16 16 15 14 13 14 13 15 14 16 16 16 18 15 14 13 15 14 15 12 12 12 12 10 10 9 8 8
11 11 10 14 14 11 10 12 13 16 14 13 15 13 14 17 17 17 16 16 15 14 14 14 16 17 18 18 16 16 15 14 15 13 14 12 13 10 10 11 10 9 9 9 9
11 11 11 10 11 12 10 13 13 14 15 15 15 13 13 15 15 17 16 16 16 15 15 15 18 18 19 19 19 18 15 14 14 14 13 13 13 9 8 9 9 9 10 10 10
7 7 8 10 12 13 13 12 12 11 13 11 13 13 14 13 13 14 15 14 14 15 16 16 18 18 17 21 19 19 18 15 14 13 13 14 11 10 10 11 10 10 10 9 9